Mt Hood
Mt. Hood Meadows - Cascade Express
Latest observation 09/03 17:00 PDT
| Time (PDT) | Temp °F 7300' | RH % 7300' | Min mph 7300' | Spd mph 7300' | Gust mph 7300' | Dir ° 7300' |
|---|---|---|---|---|---|---|
| 09/03 17:00 | 22 | 100 | 0 | 5 | 15 | 208 |
| 09/03 16:00 | 21 | 100 | 0 | 4 | 17 | 200 |
| 09/03 15:00 | 21 | 100 | 0 | 3 | 15 | 194 |
| 09/03 14:00 | 21 | 100 | 0 | 5 | 19 | 172 |
| 09/03 13:00 | 30 | 100 | 0 | 7 | 28 | 188 |
| 09/03 12:00 | 32 | 100 | 0 | 8 | 25 | 209 |
| 09/03 11:00 | 31 | 100 | 0 | 9 | 24 | 210 |
| 09/03 10:00 | 31 | 100 | 0 | 10 | 25 | 218 |
| 09/03 09:00 | 30 | 100 | 0 | 10 | 29 | 205 |
| 09/03 08:00 | 30 | 100 | 0 | 10 | 26 | 205 |
| 09/03 07:00 | 30 | 100 | 0 | 8 | 26 | 207 |
| 09/03 06:00 | 30 | 100 | 0 | 12 | 36 | 214 |
| 09/03 05:00 | 29 | 100 | 0 | 13 | 35 | 220 |
| 09/03 04:00 | 30 | 100 | 0 | 14 | 40 | 224 |
| 09/03 03:00 | 29 | 100 | 0 | 13 | 38 | 214 |
| 09/03 02:00 | 30 | 100 | 0 | 14 | 39 | 213 |
| 09/03 01:00 | 30 | 100 | 0 | 15 | 46 | 222 |
| 09/03 00:00 | 29 | 94 | 0 | 19 | 44 | 232 |
| 09/02 23:00 | 30 | 100 | 0 | 16 | 47 | 218 |
| 09/02 22:00 | 31 | 100 | 0 | 16 | 46 | 218 |
| 09/02 21:00 | 33 | 100 | 0 | 17 | 45 | 221 |
| 09/02 20:00 | 33 | 100 | 0 | 13 | 40 | 229 |
| 09/02 19:00 | 37 | 100 | 0 | 12 | 34 | 184 |
| 09/02 18:00 | 37 | 100 | 0 | 16 | 44 | 188 |

